Regional Weather Roundup
Issued by NWS Newport/Morehead, NC

Current Version | Previous Version | Graphics & Text | Print | Product List | Glossary On
Versions: 1 2 3 4 5 6 7 8 9 10 11 12 13 14 15 16 17 18 19 20 21 22 23 24 25 26 27 28 29 30 31 32 33 34 35 36 37 38 39 40 41 42 43 44 45 46 47 48 49 50
000 ASUS42 KMHX 302013 RWRMHX WEATHER ROUNDUP FOR EASTERN NORTH CAROLINA NATIONAL WEATHER SERVICE NEWPORT/MOREHEAD CITY NC 400 PM EDT FRI SEP 30 2016 NOTE: "FAIR" INDICATES FEW OR NO CLOUDS BELOW 12,000 FEET WITH NO SIGNIFICANT WEATHER AND/OR OBSTRUCTIONS TO VISIBILITY NCZ015>017-031-032-045>047-102-103-302100- NORTH COAST CITY SKY/WX TMP DP RH WIND PRES REMARKS EDENTON CLOUDY 82 78 88 SE5 30.01F ELIZABETH CITY LGT RAIN 77 72 84 E12 30.01F KITTY HAWK PTCLDY 83 77 82 SE9 30.02F MANTEO MOSUNNY 82 73 76 S9 30.03F $$ NCZ045>047-081-094-103-104-302100- CENTRAL COAST CITY SKY/WX TMP DP RH WIND PRES REMARKS FRISCO MOSUNNY 81 74 79 SE8 30.03F $$ NCZ095-097-098-100-101-302100- SOUTHERN COAST CITY SKY/WX TMP DP RH WIND PRES REMARKS BEAUFORT LGT RAIN 73 70 90 E6 30.00F CEDAR ISLAND NOT AVBL JACKSONVILLE PTSUNNY 78 72 81 SE8 29.98F PINEY ISLAND RAIN N/A N/A N/A S14G23 30.03S WILMINGTON CLOUDY 77 73 87 E7 29.98F $$ NCZ011>013-027>030-043-044-078>080-089-090>093-098-302100- COASTAL PLAIN CITY SKY/WX TMP DP RH WIND PRES REMARKS AHOSKIE CLOUDY 74 73 97 SE5 30.01F CLINTON MOSUNNY 80 75 86 SE3 29.96F ELIZABETHTOWN PTSUNNY 78 69 74 W6 29.96S GOLDSBORO PTSUNNY 82 73 73 SE7 29.96F GREENVILLE CLOUDY 81 75 83 SE8 30.01S HAVELOCK CLOUDY 74 72 93 SE10 30.00F KENANSVILLE PTSUNNY 79 72 78 SE8 29.97F KINSTON NOT AVBL NEW BERN CLOUDY 74 71 91 SE5 30.00F RICHLANDS PTSUNNY 78 71 79 SE7 29.99F ROCKY MOUNT CLOUDY 80 72 76 S8 29.99S WASHINGTON PTSUNNY 75 72 91 SE6 30.00F WHITEVILLE NOT AVBL $$ AMZ130-135-150-152-154-156-158-170-250-252-270-ANZ085-086-088-633-658-670-302100- MARINE OBSERVATIONS STATION/POSITION TIME TEMP WIND PRES WAVE SWELL AIR SEA DIR/SP/G HT/PER HT/PER (UTC) (F) (DEG/KT/KT) (MB) (FT/S) (FT/S) CHESAPEAKE LIGHT NOT AVBL 64 E VA BEACH 1950 76 75 120/ 6/ 8 1017.3 6/10 7/10 DUCK 1942 77 77 130/ 15/ 16 1016.2 2 E DUCK 1941 76 N/A 5/10 2/11 OREGON INLET 1942 80 78 110/ 8/ 11 1017.1 13E OREGON INLT 2000 76 N/A 6/11 5/11 HATTERAS CG 1942 80 79 150/ 8/ 10 1016.8 DIAMOND BUOY 1950 78 78 110/ 12/ 14 1017.2 4/10 3/10 CAPE LOOKOUT 2000 75 80/ 12/ 12 1016.0 BEAUFORT LAB 1942 72 77 110/ 3 1015.5 30 SE NEW RVR IN 1908 75 82 20/ 6/ 10 1016.6 30 SE NEW RVR IN 1955 82 N/A 4/ 5 2/11 27 SE WRIGHTSVLE 1908 79 81 40/ 6/ 10 1017.0 5 SE WRIGHTSVLE 1908 78 80 100/ 8/ 12 1016.8 225 S CAPE HAT 1950 82 83 190/ 12/ 14 1018.0 4/ 9 3/ 9 41 SE CHARLESTON 1950 82 83 190/ 12/ 14 1014.6 3/ 5 2/ 6 $$

USA.gov is the U.S. government's official web portal to all federal, state and local government web resources and services.